| time (UTC) | temp C | wind direction | speed KPH | gust KPH | rain 1hr cm | rain 24hr cm | rain mn cm | humidity % | barometer mb |
| 20260507085921 | 8 | 314 | 0.0 | 0.0 | 0.00 | 0.10 | 0.10 | 99 | 1004.1 |
| 20260507085418 | 8 | 313 | 0.0 | 0.0 | 0.00 | 0.10 | 0.10 | 99 | 1003.9 |
| 20260507084915 | 8 | 316 | 0.0 | 0.0 | 0.00 | 0.10 | 0.10 | 99 | 1004.1 |
| 20260507084412 | 8 | 314 | 0.0 | 0.0 | 0.00 | 0.10 | 0.10 | 99 | 1003.9 |
| 20260507083909 | 8 | 314 | 0.0 | 0.0 | 0.00 | 0.10 | 0.10 | 99 | 1004.3 |
| 20260507083405 | 8 | 312 | 0.0 | 0.0 | 0.00 | 0.10 | 0.10 | 99 | 1004.4 |
| 20260507082902 | 8 | 324 | 0.0 | 0.0 | 0.00 | 0.10 | 0.10 | 99 | 1004.7 |
| 20260507082357 | 8 | 311 | 0.0 | 0.0 | 0.00 | 0.10 | 0.10 | 99 | 1004.3 |
| 20260507081855 | 8 | 313 | 0.0 | 0.0 | 0.00 | 0.10 | 0.10 | 99 | 1004.0 |
| 20260507081351 | 8 | 312 | 0.0 | 0.0 | 0.00 | 0.10 | 0.10 | 99 | 1003.7 |
| 20260507080848 | 8 | 314 | 0.0 | 0.0 | 0.00 | 0.10 | 0.10 | 99 | 1003.7 |
| 20260507080344 | 8 | 313 | 0.0 | 0.0 | 0.00 | 0.10 | 0.10 | 99 | 1003.4 |
| 20260507075839 | 8 | 315 | 0.0 | 0.0 | 0.00 | 0.10 | 0.10 | 99 | 1003.7 |
| 20260507075336 | 9 | 312 | 0.0 | 0.0 | 0.00 | 0.10 | 0.10 | 99 | 1003.5 |
| 20260507074832 | 9 | 314 | 0.0 | 0.0 | 0.00 | 0.10 | 0.10 | 99 | 1003.8 |
| 20260507074330 | 9 | 315 | 0.0 | 0.0 | 0.00 | 0.10 | 0.10 | 99 | 1004.1 |
| 20260507073827 | 9 | 310 | 0.0 | 0.0 | 0.00 | 0.10 | 0.10 | 99 | 1003.9 |
| 20260507073324 | 9 | 313 | 0.0 | 0.0 | 0.00 | 0.10 | 0.10 | 99 | 1003.8 |
| 20260507072821 | 9 | 314 | 0.0 | 0.0 | 0.00 | 0.10 | 0.10 | 99 | 1003.8 |
| 20260507072318 | 9 | 312 | 0.0 | 0.0 | 0.00 | 0.10 | 0.10 | 99 | 1003.6 |
| 20260507071815 | 9 | 312 | 0.0 | 0.0 | 0.00 | 0.10 | 0.10 | 99 | 1003.4 |
| 20260507071312 | 10 | 312 | 0.0 | 0.0 | 0.00 | 0.10 | 0.10 | 99 | 1003.3 |
| 20260507070809 | 10 | 312 | 0.0 | 0.0 | 0.00 | 0.10 | 0.10 | 99 | 1003.2 |
| 20260507070306 | 10 | 309 | 0.0 | 0.0 | 0.00 | 0.10 | 0.10 | 99 | 1003.6 |
| 20260507065802 | 10 | 313 | 0.0 | 0.0 | 0.00 | 0.10 | 0.10 | 99 | 1003.4 |
| 20260507065259 | 10 | 313 | 0.0 | 0.0 | 0.00 | 0.10 | 0.10 | 99 | 1003.1 |
| 20260507064756 | 10 | 313 | 0.0 | 0.0 | 0.00 | 0.10 | 0.10 | 99 | 1003.3 |
| 20260507064255 | 10 | 313 | 0.0 | 0.0 | 0.00 | 0.10 | 0.10 | 99 | 1003.2 |
| 20260507063753 | 10 | 313 | 0.0 | 0.0 | 0.00 | 0.10 | 0.10 | 99 | 1003.3 |
| 20260507063249 | 10 | 311 | 0.0 | 0.0 | 0.00 | 0.10 | 0.10 | 99 | 1003.2 |
| 20260507062746 | 10 | 313 | 0.0 | 0.0 | 0.00 | 0.10 | 0.10 | 99 | 1003.1 |
| 20260507062243 | 10 | 313 | 0.0 | 0.0 | 0.00 | 0.10 | 0.10 | 99 | 1003.1 |
| 20260507061741 | 10 | 313 | 0.0 | 0.0 | 0.00 | 0.10 | 0.10 | 99 | 1003.1 |
| 20260507061239 | 10 | 313 | 0.0 | 0.0 | 0.00 | 0.10 | 0.10 | 99 | 1003.1 |
| 20260507060737 | 10 | 312 | 0.0 | 1.6 | 0.00 | 0.10 | 0.10 | 99 | 1003.0 |
| 20260507060233 | 10 | 309 | 0.0 | 0.0 | 0.00 | 0.10 | 0.10 | 99 | 1003.0 |
| 20260507055729 | 10 | 314 | 0.0 | 0.0 | 0.00 | 0.10 | 0.10 | 99 | 1003.1 |
| 20260507055225 | 10 | 314 | 0.0 | 0.0 | 0.00 | 0.10 | 0.10 | 99 | 1003.2 |
| 20260507054721 | 10 | 320 | 0.0 | 0.0 | 0.00 | 0.10 | 0.10 | 99 | 1002.7 |
| 20260507054218 | 10 | 315 | 0.0 | 0.0 | 0.18 | 0.10 | 0.10 | 99 | 1002.8 |
| 20260507053716 | 10 | 307 | 0.0 | 0.0 | 0.18 | 0.10 | 0.10 | 99 | 1002.7 |
| 20260507053213 | 11 | 300 | 0.0 | 0.0 | 0.00 | 0.08 | 0.08 | 99 | 1002.7 |
| 20260507052712 | 11 | 315 | 0.0 | 1.6 | 0.00 | 0.08 | 0.08 | 99 | 1002.8 |
| 20260507052208 | 11 | 312 | 0.0 | 0.0 | 0.00 | 0.08 | 0.08 | 99 | 1002.8 |
| 20260507051706 | 11 | 311 | 0.0 | 0.0 | 0.00 | 0.08 | 0.08 | 99 | 1002.8 |
| 20260507051202 | 11 | 313 | 0.0 | 0.0 | 0.13 | 0.08 | 0.08 | 99 | 1002.7 |
| 20260507050659 | 11 | 308 | 0.0 | 0.0 | 0.13 | 0.08 | 0.08 | 99 | 1002.6 |
| 20260507050156 | 11 | 310 | 0.0 | 0.0 | 0.00 | 0.05 | 0.05 | 99 | 1002.7 |
| 20260507045653 | 12 | 307 | 1.6 | 1.6 | 0.00 | 0.05 | 0.05 | 99 | 1002.3 |
| 20260507045149 | 12 | 309 | 0.0 | 0.0 | 0.00 | 0.05 | 0.05 | 99 | 1002.2 |
| 20260507044646 | 11 | 309 | 0.0 | 0.0 | 0.00 | 0.05 | 0.05 | 99 | 1002.3 |
| 20260507044143 | 11 | 309 | 0.0 | 1.6 | 0.00 | 0.05 | 0.05 | 99 | 1002.1 |
| 20260507043639 | 11 | 312 | 0.0 | 0.0 | 0.00 | 0.05 | 0.05 | 99 | 1002.2 |
| 20260507043136 | 11 | 308 | 0.0 | 0.0 | 0.00 | 0.05 | 0.05 | 99 | 1002.2 |
| 20260507042633 | 12 | 308 | 0.0 | 0.0 | 0.18 | 0.05 | 0.05 | 99 | 1001.7 |
| 20260507042128 | 11 | 308 | 0.0 | 0.0 | 0.36 | 0.05 | 0.05 | 99 | 1001.8 |
| 20260507041625 | 11 | 312 | 0.0 | 0.0 | 0.18 | 0.03 | 0.03 | 99 | 1001.6 |
| 20260507041121 | 11 | 312 | 0.0 | 0.0 | 0.00 | 0.00 | 0.00 | 99 | 1002.2 |
| 20260507040619 | 11 | 313 | 0.0 | 0.0 | 0.00 | 0.00 | 0.00 | 99 | 1002.4 |
| 20260507040115 | 11 | 312 | 0.0 | 0.0 | 0.30 | 0.00 | 0.00 | 99 | 1002.3 |
| 20260507035611 | 11 | 310 | 0.0 | 0.0 | 0.30 | 0.53 | 0.53 | 99 | 1002.2 |
| 20260507035107 | 11 | 335 | 1.6 | 3.2 | 0.00 | 0.48 | 0.48 | 99 | 1002.2 |
| 20260507034605 | 11 | 348 | 3.2 | 3.2 | 0.00 | 0.48 | 0.48 | 99 | 1002.2 |
| 20260507034102 | 11 | 301 | 0.0 | 1.6 | 0.00 | 0.48 | 0.48 | 99 | 1001.8 |
| 20260507033600 | 11 | 334 | 0.0 | 1.6 | 0.13 | 0.48 | 0.48 | 99 | 1002.0 |
| 20260507033056 | 11 | 318 | 1.6 | 3.2 | 0.13 | 0.48 | 0.48 | 99 | 1002.1 |
| 20260507032554 | 11 | 329 | 1.6 | 1.6 | 0.00 | 0.46 | 0.46 | 99 | 1001.9 |
| 20260507032050 | 11 | 313 | 0.0 | 0.0 | 0.00 | 0.46 | 0.46 | 99 | 1001.8 |
| 20260507031547 | 11 | 328 | 0.0 | 1.6 | 0.00 | 0.46 | 0.46 | 99 | 1002.0 |
| 20260507031044 | 11 | 313 | 0.0 | 0.0 | 0.00 | 0.46 | 0.46 | 99 | 1001.9 |
| 20260507030540 | 11 | 314 | 1.6 | 1.6 | 0.00 | 0.46 | 0.46 | 99 | 1001.6 |
| 20260507030038 | 11 | 313 | 1.6 | 1.6 | 0.00 | 0.46 | 0.46 | 99 | 1001.9 |
| 20260507025535 | 11 | 317 | 0.0 | 1.6 | 0.00 | 0.46 | 0.46 | 99 | 1001.7 |
| 20260507025032 | 11 | 338 | 3.2 | 3.2 | 0.00 | 0.46 | 0.46 | 99 | 1001.7 |
| 20260507024530 | 11 | 327 | 3.2 | 4.8 | 0.00 | 0.46 | 0.46 | 99 | 1002.1 |
| 20260507024027 | 11 | 315 | 0.0 | 0.0 | 0.00 | 0.46 | 0.46 | 99 | 1002.0 |
| 20260507023522 | 11 | 331 | 1.6 | 1.6 | 0.00 | 0.46 | 0.46 | 99 | 1002.1 |
| 20260507023021 | 11 | 333 | 3.2 | 3.2 | 0.00 | 0.46 | 0.46 | 99 | 1001.9 |
| 20260507022517 | 11 | 315 | 4.8 | 4.8 | 0.00 | 0.46 | 0.46 | 99 | 1002.2 |
| 20260507022012 | 11 | 298 | 3.2 | 3.2 | 0.00 | 0.46 | 0.46 | 99 | 1002.2 |
| 20260507021508 | 10 | 3 | 4.8 | 8.0 | 0.00 | 0.46 | 0.46 | 99 | 1002.3 |
| 20260507021005 | 10 | 294 | 6.4 | 11.3 | 0.00 | 0.46 | 0.46 | 99 | 1002.5 |
| 20260507020503 | 10 | 325 | 4.8 | 8.0 | 0.00 | 0.46 | 0.46 | 99 | 1002.3 |
| 20260507015959 | 10 | 18 | 4.8 | 4.8 | 0.00 | 0.46 | 0.46 | 99 | 1002.5 |
| 20260507015458 | 10 | 22 | 3.2 | 3.2 | 0.00 | 0.46 | 0.46 | 99 | 1002.2 |
| 20260507014955 | 10 | 341 | 4.8 | 8.0 | 0.00 | 0.46 | 0.46 | 99 | 1002.4 |
| 20260507014451 | 10 | 182 | 8.0 | 11.3 | 0.00 | 0.46 | 0.46 | 99 | 1002.6 |
| 20260507013947 | 10 | 20 | 6.4 | 11.3 | 0.00 | 0.46 | 0.46 | 99 | 1002.8 |
| 20260507013444 | 10 | 29 | 6.4 | 8.0 | 0.00 | 0.46 | 0.46 | 99 | 1002.6 |
| 20260507012941 | 10 | 330 | 0.0 | 0.0 | 0.00 | 0.46 | 0.46 | 99 | 1002.7 |
| 20260507012438 | 10 | 37 | 4.8 | 9.7 | 0.18 | 0.46 | 0.46 | 99 | 1002.9 |
| 20260507011935 | 10 | 315 | 6.4 | 8.0 | 0.18 | 0.46 | 0.46 | 99 | 1002.6 |
| 20260507011432 | 10 | 339 | 3.2 | 3.2 | 0.18 | 0.46 | 0.46 | 99 | 1002.7 |
| 20260507010932 | 10 | 291 | 8.0 | 9.7 | 0.00 | 0.43 | 0.43 | 99 | 1002.9 |
| 20260507010427 | 10 | 210 | 8.0 | 12.9 | 0.00 | 0.43 | 0.43 | 99 | 1002.9 |
| 20260507005924 | 10 | 316 | 3.2 | 4.8 | 0.00 | 0.43 | 0.43 | 99 | 1002.8 |
| 20260507005421 | 10 | 335 | 1.6 | 3.2 | 0.00 | 0.43 | 0.43 | 99 | 1002.7 |
| 20260507004918 | 10 | 343 | 4.8 | 4.8 | 0.00 | 0.43 | 0.43 | 99 | 1002.8 |
| 20260507004414 | 10 | 30 | 6.4 | 11.3 | 0.00 | 0.43 | 0.43 | 99 | 1003.0 |
| 20260507003912 | 10 | 317 | 1.6 | 3.2 | 0.00 | 0.43 | 0.43 | 99 | 1002.7 |
| 20260507003407 | 10 | 33 | 6.4 | 8.0 | 0.00 | 0.43 | 0.43 | 99 | 1003.0 |
| 20260507002903 | 10 | 325 | 6.4 | 8.0 | 0.00 | 0.43 | 0.43 | 99 | 1003.0 |
| 20260507002359 | 10 | 18 | 1.6 | 3.2 | 0.00 | 0.43 | 0.43 | 99 | 1003.0 |
| 20260507001856 | 10 | 331 | 0.0 | 0.0 | 0.00 | 0.43 | 0.43 | 99 | 1002.9 |
| 20260507001353 | 10 | 335 | 0.0 | 0.0 | 0.00 | 0.43 | 0.43 | 99 | 1003.3 |
| 20260507000850 | 10 | 311 | 3.2 | 3.2 | 0.00 | 0.43 | 0.43 | 99 | 1002.9 |
| 20260507000345 | 10 | 339 | 3.2 | 3.2 | 0.00 | 0.43 | 0.43 | 99 | 1003.0 |
| 20260506235842 | 10 | 323 | 1.6 | 3.2 | 0.00 | 0.43 | 0.43 | 99 | 1003.1 |
| 20260506235339 | 10 | 28 | 6.4 | 9.7 | 0.00 | 0.43 | 0.43 | 99 | 1003.0 |
| 20260506234835 | 10 | 350 | 4.8 | 8.0 | 0.00 | 0.43 | 0.43 | 99 | 1003.1 |
| 20260506234333 | 10 | 332 | 1.6 | 1.6 | 0.00 | 0.43 | 0.43 | 99 | 1003.1 |
| 20260506233830 | 10 | 66 | 6.4 | 14.5 | 0.00 | 0.43 | 0.43 | 99 | 1003.1 |
| 20260506233325 | 10 | 31 | 4.8 | 8.0 | 0.00 | 0.43 | 0.43 | 99 | 1003.0 |
| 20260506232823 | 10 | 318 | 3.2 | 3.2 | 0.00 | 0.43 | 0.43 | 99 | 1003.0 |
| 20260506232318 | 10 | 295 | 6.4 | 11.3 | 0.00 | 0.43 | 0.43 | 99 | 1003.0 |
| 20260506231815 | 10 | 9 | 6.4 | 8.0 | 0.00 | 0.43 | 0.43 | 99 | 1003.0 |
| 20260506231313 | 10 | 56 | 1.6 | 8.0 | 0.00 | 0.43 | 0.43 | 99 | 1003.2 |
| 20260506230810 | 10 | 355 | 4.8 | 4.8 | 0.00 | 0.43 | 0.43 | 99 | 1003.3 |
| 20260506230307 | 10 | 359 | 4.8 | 9.7 | 0.00 | 0.43 | 0.43 | 99 | 1003.1 |
| 20260506225803 | 10 | 23 | 3.2 | 4.8 | 0.00 | 0.43 | 0.43 | 99 | 1003.3 |
| 20260506225300 | 10 | 64 | 6.4 | 9.7 | 0.00 | 0.43 | 0.43 | 99 | 1003.1 |
| 20260506224756 | 10 | 314 | 3.2 | 4.8 | 0.00 | 0.43 | 0.43 | 99 | 1003.2 |
| 20260506224254 | 10 | 329 | 4.8 | 8.0 | 0.00 | 0.43 | 0.43 | 99 | 1003.3 |
| 20260506223749 | 10 | 30 | 4.8 | 8.0 | 0.00 | 0.43 | 0.43 | 99 | 1003.3 |
| 20260506223240 | 11 | 319 | 1.6 | 1.6 | 0.00 | 0.43 | 0.43 | 99 | 1003.3 |
| 20260506222737 | 11 | 356 | 1.6 | 3.2 | 0.13 | 0.43 | 0.43 | 99 | 1003.5 |
| 20260506222233 | 11 | 47 | 6.4 | 12.9 | 0.13 | 0.43 | 0.43 | 99 | 1003.5 |
| 20260506221731 | 11 | 343 | 3.2 | 3.2 | 0.00 | 0.41 | 0.41 | 99 | 1003.4 |
| 20260506221229 | 11 | 323 | 3.2 | 4.8 | 0.18 | 0.41 | 0.41 | 99 | 1003.2 |
| 20260506220726 | 11 | 315 | 1.6 | 3.2 | 0.18 | 0.41 | 0.41 | 99 | 1003.5 |
| 20260506220220 | 11 | 276 | 4.8 | 8.0 | 0.00 | 0.38 | 0.38 | 99 | 1003.5 |
| 20260506215717 | 11 | 3 | 4.8 | 4.8 | 0.13 | 0.38 | 0.38 | 99 | 1003.7 |
| 20260506215213 | 11 | 1 | 3.2 | 4.8 | 0.43 | 0.38 | 0.38 | 99 | 1003.8 |
| 20260506214710 | 11 | 285 | 8.0 | 9.7 | 0.30 | 0.36 | 0.36 | 99 | 1003.8 |
| 20260506214207 | 11 | 2 | 4.8 | 8.0 | 0.30 | 0.33 | 0.33 | 99 | 1003.8 |
| 20260506213705 | 11 | 38 | 8.0 | 11.3 | 0.30 | 0.30 | 0.30 | 99 | 1003.7 |
| 20260506213203 | 11 | 333 | 1.6 | 3.2 | 0.13 | 0.28 | 0.28 | 99 | 1003.7 |
| 20260506212659 | 11 | 4 | 4.8 | 8.0 | 0.13 | 0.28 | 0.28 | 99 | 1003.9 |
| 20260506212155 | 11 | 336 | 3.2 | 4.8 | 0.18 | 0.25 | 0.25 | 99 | 1003.8 |
| 20260506211650 | 11 | 293 | 4.8 | 4.8 | 0.30 | 0.23 | 0.23 | 99 | 1004.2 |
| 20260506211147 | 11 | 339 | 4.8 | 8.0 | 0.30 | 0.23 | 0.23 | 99 | 1003.9 |
| 20260506210644 | 11 | 357 | 4.8 | 8.0 | 0.18 | 0.18 | 0.18 | 99 | 1004.0 |
| 20260506210141 | 11 | 329 | 4.8 | 8.0 | 0.18 | 0.18 | 0.18 | 99 | 1004.0 |
| 20260506205638 | 11 | 327 | 0.0 | 1.6 | 0.00 | 0.15 | 0.15 | 99 | 1004.0 |
| 20260506205132 | 11 | 52 | 8.0 | 9.7 | 0.00 | 0.15 | 0.15 | 99 | 1003.9 |
| 20260506204631 | 11 | 350 | 3.2 | 4.8 | 0.13 | 0.15 | 0.15 | 99 | 1004.2 |
| 20260506204127 | 11 | 44 | 4.8 | 8.0 | 0.00 | 0.13 | 0.13 | 98 | 1004.1 |
| 20260506203626 | 12 | 338 | 1.6 | 3.2 | 0.00 | 0.13 | 0.13 | 98 | 1003.9 |
| 20260506203122 | 12 | 10 | 1.6 | 3.2 | 0.00 | 0.13 | 0.13 | 98 | 1004.2 |
| 20260506202620 | 12 | 313 | 0.0 | 0.0 | 0.00 | 0.13 | 0.13 | 98 | 1004.1 |
| 20260506202116 | 12 | 305 | 1.6 | 1.6 | 0.00 | 0.13 | 0.13 | 98 | 1004.0 |
| 20260506201613 | 12 | 330 | 1.6 | 1.6 | 0.00 | 0.13 | 0.13 | 98 | 1004.1 |
| 20260506201110 | 12 | 310 | 1.6 | 3.2 | 0.00 | 0.13 | 0.13 | 98 | 1004.1 |
| 20260506200606 | 12 | 313 | 3.2 | 3.2 | 0.18 | 0.13 | 0.13 | 98 | 1003.9 |
| 20260506195559 | 12 | 317 | 1.6 | 3.2 | 0.00 | 0.10 | 0.10 | 98 | 1004.3 |
| 20260506195056 | 12 | 311 | 1.6 | 1.6 | 0.13 | 0.10 | 0.10 | 98 | 1004.3 |
| 20260506194554 | 12 | 320 | 0.0 | 1.6 | 0.13 | 0.10 | 0.10 | 98 | 1004.5 |
| 20260506194050 | 12 | 304 | 4.8 | 8.0 | 0.18 | 0.08 | 0.08 | 98 | 1004.7 |
| 20260506193548 | 12 | 314 | 0.0 | 0.0 | 0.30 | 0.08 | 0.08 | 97 | 1004.6 |
| 20260506193045 | 12 | 311 | 0.0 | 0.0 | 0.13 | 0.05 | 0.05 | 96 | 1005.0 |
| 20260506192541 | 12 | 353 | 8.0 | 11.3 | 0.00 | 0.03 | 0.03 | 96 | 1005.1 |
| 20260506192037 | 12 | 300 | 4.8 | 8.0 | 0.18 | 0.03 | 0.03 | 96 | 1004.7 |
| 20260506191534 | 12 | 354 | 4.8 | 4.8 | 0.18 | 0.03 | 0.03 | 96 | 1004.8 |
| 20260506191030 | 12 | 320 | 3.2 | 4.8 | 0.00 | 0.00 | 0.00 | 95 | 1004.4 |
| 20260506190527 | 12 | 29 | 4.8 | 8.0 | 0.00 | 0.00 | 0.00 | 94 | 1004.7 |
| 20260506190024 | 12 | 287 | 6.4 | 8.0 | 0.00 | 0.00 | 0.00 | 94 | 1004.8 |
| 20260506185522 | 12 | 293 | 6.4 | 8.0 | 0.00 | 0.00 | 0.00 | 93 | 1004.9 |
| 20260506185018 | 12 | 16 | 4.8 | 4.8 | 0.00 | 0.00 | 0.00 | 92 | 1004.7 |
| 20260506184515 | 12 | 32 | 4.8 | 8.0 | 0.00 | 0.00 | 0.00 | 91 | 1004.3 |
| 20260506184013 | 12 | 340 | 4.8 | 9.7 | 0.00 | 0.00 | 0.00 | 91 | 1004.4 |
| 20260506183508 | 12 | 294 | 4.8 | 8.0 | 0.00 | 0.00 | 0.00 | 91 | 1004.3 |
| 20260506183006 | 12 | 18 | 1.6 | 1.6 | 0.00 | 0.00 | 0.00 | 90 | 1004.6 |
| 20260506182502 | 12 | 239 | 4.8 | 8.0 | 0.00 | 0.00 | 0.00 | 90 | 1004.5 |
| 20260506181959 | 12 | 329 | 3.2 | 3.2 | 0.00 | 0.00 | 0.00 | 90 | 1004.7 |
| 20260506181457 | 12 | 337 | 3.2 | 3.2 | 0.00 | 0.00 | 0.00 | 90 | 1004.5 |
| 20260506180954 | 12 | 331 | 3.2 | 4.8 | 0.00 | 0.00 | 0.00 | 90 | 1004.7 |
| 20260506180451 | 12 | 327 | 3.2 | 4.8 | 0.00 | 0.00 | 0.00 | 89 | 1004.7 |
| 20260506175947 | 12 | 283 | 4.8 | 8.0 | 0.00 | 0.00 | 0.00 | 89 | 1004.7 |
| 20260506175444 | 12 | 44 | 6.4 | 11.3 | 0.00 | 0.00 | 0.00 | 89 | 1004.6 |
| 20260506174940 | 12 | 287 | 3.2 | 4.8 | 0.00 | 0.00 | 0.00 | 89 | 1004.8 |
| 20260506174438 | 12 | 309 | 3.2 | 4.8 | 0.00 | 0.00 | 0.00 | 89 | 1004.9 |
| 20260506173935 | 12 | 314 | 3.2 | 4.8 | 0.00 | 0.00 | 0.00 | 89 | 1004.7 |
| 20260506173432 | 12 | 355 | 4.8 | 4.8 | 0.00 | 0.00 | 0.00 | 89 | 1004.9 |
| 20260506172929 | 12 | 325 | 4.8 | 9.7 | 0.00 | 0.00 | 0.00 | 89 | 1005.0 |
| 20260506172426 | 12 | 311 | 4.8 | 4.8 | 0.00 | 0.00 | 0.00 | 89 | 1004.9 |
| 20260506171917 | 12 | 343 | 1.6 | 3.2 | 0.00 | 0.00 | 0.00 | 89 | 1005.0 |
| 20260506171415 | 12 | 311 | 1.6 | 1.6 | 0.00 | 0.00 | 0.00 | 89 | 1005.1 |
| 20260506170912 | 12 | 18 | 3.2 | 3.2 | 0.00 | 0.00 | 0.00 | 90 | 1005.2 |
| 20260506170407 | 12 | 338 | 3.2 | 3.2 | 0.00 | 0.00 | 0.00 | 90 | 1005.2 |
| 20260506165901 | 12 | 346 | 4.8 | 8.0 | 0.00 | 0.00 | 0.00 | 90 | 1005.4 |
| 20260506165359 | 12 | 46 | 6.4 | 11.3 | 0.00 | 0.00 | 0.00 | 89 | 1005.4 |
| 20260506164855 | 13 | 50 | 3.2 | 4.8 | 0.00 | 0.00 | 0.00 | 88 | 1005.5 |
| 20260506164352 | 13 | 316 | 1.6 | 3.2 | 0.00 | 0.00 | 0.00 | 88 | 1005.5 |
| 20260506163850 | 13 | 2 | 4.8 | 9.7 | 0.00 | 0.00 | 0.00 | 88 | 1005.8 |
| 20260506163344 | 13 | 1 | 4.8 | 9.7 | 0.00 | 0.00 | 0.00 | 88 | 1005.7 |
| 20260506162839 | 13 | 50 | 6.4 | 11.3 | 0.00 | 0.00 | 0.00 | 87 | 1006.0 |
| 20260506162338 | 14 | 54 | 3.2 | 4.8 | 0.00 | 0.00 | 0.00 | 87 | 1006.2 |
| 20260506161835 | 14 | 46 | 4.8 | 8.0 | 0.00 | 0.00 | 0.00 | 87 | 1006.3 |
| 20260506161331 | 14 | 308 | 1.6 | 3.2 | 0.00 | 0.00 | 0.00 | 87 | 1006.2 |
| 20260506160824 | 15 | 302 | 3.2 | 3.2 | 0.00 | 0.00 | 0.00 | 85 | 1006.2 |
| 20260506160320 | 14 | 299 | 4.8 | 4.8 | 0.00 | 0.00 | 0.00 | 86 | 1006.2 |
| 20260506155818 | 14 | 30 | 4.8 | 8.0 | 0.00 | 0.00 | 0.00 | 86 | 1006.6 |
| 20260506155315 | 14 | 41 | 6.4 | 9.7 | 0.00 | 0.00 | 0.00 | 87 | 1006.5 |
| 20260506153428 | 13 | 341 | 8.0 | 9.7 | 0.00 | 0.00 | 0.00 | 89 | 1006.6 |
| 20260506152925 | 13 | 46 | 8.0 | 11.3 | 0.00 | 0.00 | 0.00 | 89 | 1006.8 |
| 20260506152421 | 13 | 272 | 6.4 | 8.0 | 0.00 | 0.00 | 0.00 | 88 | 1006.7 |
| 20260506151921 | 13 | 313 | 1.6 | 3.2 | 0.00 | 0.00 | 0.00 | 89 | 1006.7 |
| 20260506151417 | 13 | 292 | 6.4 | 8.0 | 0.00 | 0.00 | 0.00 | 88 | 1006.8 |
| 20260506150915 | 13 | 315 | 0.0 | 1.6 | 0.00 | 0.00 | 0.00 | 89 | 1006.6 |
| 20260506150410 | 13 | 286 | 6.4 | 9.7 | 0.00 | 0.00 | 0.00 | 89 | 1006.7 |
| 20260506145908 | 13 | 326 | 6.4 | 9.7 | 0.00 | 0.00 | 0.00 | 88 | 1006.8 |
| 20260506145403 | 13 | 337 | 4.8 | 4.8 | 0.00 | 0.00 | 0.00 | 88 | 1006.4 |
| 20260506144901 | 14 | 5 | 4.8 | 9.7 | 0.00 | 0.00 | 0.00 | 88 | 1006.4 |
| 20260506144357 | 14 | 57 | 4.8 | 11.3 | 0.00 | 0.00 | 0.00 | 87 | 1006.4 |
| 20260506143856 | 13 | 26 | 6.4 | 8.0 | 0.00 | 0.00 | 0.00 | 89 | 1006.5 |
| 20260506143353 | 13 | 333 | 1.6 | 3.2 | 0.00 | 0.00 | 0.00 | 89 | 1006.4 |
| 20260506142851 | 13 | 303 | 6.4 | 8.0 | 0.00 | 0.00 | 0.00 | 90 | 1006.5 |
| 20260506142349 | 13 | 53 | 9.7 | 14.5 | 0.00 | 0.00 | 0.00 | 90 | 1006.5 |
| 20260506141847 | 13 | 289 | 6.4 | 8.0 | 0.00 | 0.00 | 0.00 | 90 | 1006.6 |
| 20260506141345 | 13 | 280 | 4.8 | 4.8 | 0.00 | 0.00 | 0.00 | 91 | 1006.8 |
| 20260506140843 | 13 | 317 | 3.2 | 3.2 | 0.00 | 0.00 | 0.00 | 92 | 1006.9 |
| 20260506140339 | 13 | 352 | 3.2 | 3.2 | 0.00 | 0.00 | 0.00 | 91 | 1006.8 |
| 20260506135836 | 13 | 338 | 1.6 | 3.2 | 0.00 | 0.00 | 0.00 | 91 | 1006.9 |
| 20260506135333 | 13 | 332 | 1.6 | 1.6 | 0.00 | 0.00 | 0.00 | 92 | 1006.8 |
| 20260506134829 | 13 | 326 | 0.0 | 1.6 | 0.00 | 0.00 | 0.00 | 92 | 1007.0 |
| 20260506134325 | 12 | 320 | 4.8 | 4.8 | 0.00 | 0.00 | 0.00 | 92 | 1007.0 |
| 20260506133823 | 12 | 27 | 4.8 | 4.8 | 0.00 | 0.00 | 0.00 | 93 | 1006.9 |
| 20260506133319 | 12 | 37 | 3.2 | 4.8 | 0.00 | 0.00 | 0.00 | 93 | 1007.1 |
| 20260506132816 | 12 | 43 | 8.0 | 9.7 | 0.00 | 0.00 | 0.00 | 93 | 1006.8 |
| 20260506132313 | 12 | 341 | 3.2 | 4.8 | 0.00 | 0.00 | 0.00 | 92 | 1006.9 |
| 20260506131811 | 12 | 311 | 4.8 | 4.8 | 0.00 | 0.00 | 0.00 | 92 | 1006.9 |
| 20260506131307 | 12 | 317 | 0.0 | 1.6 | 0.00 | 0.00 | 0.00 | 91 | 1006.9 |
| 20260506130804 | 12 | 321 | 0.0 | 0.0 | 0.00 | 0.00 | 0.00 | 92 | 1006.8 |
| 20260506130301 | 12 | 288 | 3.2 | 3.2 | 0.00 | 0.00 | 0.00 | 92 | 1006.8 |
| 20260506125759 | 12 | 16 | 1.6 | 3.2 | 0.00 | 0.00 | 0.00 | 92 | 1006.8 |
| 20260506125257 | 12 | 290 | 4.8 | 4.8 | 0.00 | 0.00 | 0.00 | 92 | 1006.8 |
| 20260506124755 | 12 | 44 | 3.2 | 8.0 | 0.00 | 0.00 | 0.00 | 92 | 1006.9 |
| 20260506124252 | 12 | 306 | 1.6 | 1.6 | 0.00 | 0.00 | 0.00 | 92 | 1006.9 |
| 20260506123749 | 12 | 12 | 6.4 | 9.7 | 0.00 | 0.00 | 0.00 | 92 | 1006.8 |
| 20260506123248 | 12 | 319 | 3.2 | 3.2 | 0.00 | 0.00 | 0.00 | 91 | 1006.7 |
| 20260506122744 | 12 | 299 | 1.6 | 1.6 | 0.00 | 0.00 | 0.00 | 92 | 1006.8 |
| 20260506122241 | 12 | 326 | 4.8 | 8.0 | 0.00 | 0.00 | 0.00 | 91 | 1006.8 |
| 20260506121740 | 12 | 311 | 1.6 | 1.6 | 0.00 | 0.00 | 0.00 | 91 | 1007.0 |
| 20260506121236 | 12 | 318 | 1.6 | 1.6 | 0.00 | 0.00 | 0.00 | 91 | 1006.9 |
| 20260506120733 | 12 | 321 | 0.0 | 0.0 | 0.00 | 0.00 | 0.00 | 91 | 1007.3 |
| 20260506120231 | 12 | 332 | 3.2 | 3.2 | 0.00 | 0.00 | 0.00 | 91 | 1007.1 |
| 20260506115729 | 12 | 317 | 1.6 | 1.6 | 0.00 | 0.00 | 0.00 | 92 | 1006.9 |
| 20260506115227 | 12 | 321 | 3.2 | 3.2 | 0.00 | 0.00 | 0.00 | 92 | 1007.1 |
| 20260506114724 | 12 | 329 | 1.6 | 1.6 | 0.00 | 0.00 | 0.00 | 91 | 1007.2 |
| 20260506114222 | 12 | 314 | 0.0 | 1.6 | 0.00 | 0.00 | 0.00 | 92 | 1007.2 |
| 20260506113720 | 12 | 4 | 0.0 | 1.6 | 0.00 | 0.00 | 0.00 | 92 | 1007.4 |
| 20260506113217 | 12 | 308 | 3.2 | 3.2 | 0.00 | 0.00 | 0.00 | 92 | 1007.4 |
| 20260506112713 | 12 | 323 | 0.0 | 0.0 | 0.00 | 0.00 | 0.00 | 92 | 1007.4 |
| 20260506112211 | 12 | 311 | 0.0 | 0.0 | 0.00 | 0.00 | 0.00 | 92 | 1007.5 |
| 20260506111708 | 12 | 305 | 0.0 | 1.6 | 0.00 | 0.00 | 0.00 | 92 | 1007.2 |
| 20260506111207 | 12 | 313 | 1.6 | 3.2 | 0.00 | 0.00 | 0.00 | 92 | 1007.4 |
| 20260506110703 | 12 | 324 | 1.6 | 1.6 | 0.00 | 0.00 | 0.00 | 92 | 1007.2 |
| 20260506110201 | 12 | 312 | 0.0 | 0.0 | 0.00 | 0.00 | 0.00 | 92 | 1007.1 |
| 20260506105657 | 12 | 305 | 1.6 | 1.6 | 0.00 | 0.00 | 0.00 | 92 | 1007.2 |
| 20260506105154 | 12 | 341 | 3.2 | 3.2 | 0.00 | 0.00 | 0.00 | 92 | 1007.2 |
| 20260506104652 | 12 | 324 | 0.0 | 1.6 | 0.00 | 0.00 | 0.00 | 92 | 1007.3 |
| 20260506104149 | 12 | 325 | 1.6 | 3.2 | 0.00 | 0.00 | 0.00 | 93 | 1007.2 |
| 20260506103647 | 11 | 328 | 3.2 | 3.2 | 0.00 | 0.00 | 0.00 | 93 | 1007.1 |
| 20260506103143 | 11 | 332 | 3.2 | 3.2 | 0.00 | 0.00 | 0.00 | 93 | 1007.0 |
| 20260506102642 | 11 | 353 | 3.2 | 4.8 | 0.00 | 0.00 | 0.00 | 92 | 1007.1 |
| 20260506102139 | 11 | 320 | 3.2 | 4.8 | 0.00 | 0.00 | 0.00 | 93 | 1007.3 |
| 20260506101635 | 11 | 332 | 3.2 | 3.2 | 0.00 | 0.00 | 0.00 | 93 | 1007.0 |
| 20260506101132 | 11 | 317 | 1.6 | 3.2 | 0.00 | 0.00 | 0.00 | 93 | 1007.0 |
| 20260506100631 | 11 | 336 | 1.6 | 1.6 | 0.00 | 0.00 | 0.00 | 94 | 1006.8 |
| 20260506100128 | 11 | 328 | 1.6 | 1.6 | 0.00 | 0.00 | 0.00 | 94 | 1006.9 |
| 20260506095627 | 10 | 311 | 0.0 | 1.6 | 0.00 | 0.00 | 0.00 | 94 | 1007.0 |
| 20260506095123 | 10 | 295 | 1.6 | 3.2 | 0.00 | 0.00 | 0.00 | 94 | 1007.2 |
| 20260506094621 | 10 | 319 | 0.0 | 1.6 | 0.00 | 0.00 | 0.00 | 94 | 1007.1 |
| 20260506094118 | 10 | 314 | 0.0 | 0.0 | 0.00 | 0.00 | 0.00 | 94 | 1006.9 |
| 20260506093617 | 10 | 348 | 0.0 | 3.2 | 0.00 | 0.00 | 0.00 | 94 | 1006.8 |
| 20260506093114 | 10 | 313 | 0.0 | 0.0 | 0.00 | 0.00 | 0.00 | 94 | 1006.6 |
| 20260506092612 | 10 | 357 | 4.8 | 4.8 | 0.00 | 0.00 | 0.00 | 93 | 1006.9 |
| 20260506092108 | 11 | 341 | 1.6 | 1.6 | 0.00 | 0.00 | 0.00 | 93 | 1006.8 |
| 20260506091606 | 11 | 319 | 0.0 | 1.6 | 0.00 | 0.00 | 0.00 | 93 | 1006.9 |
| 20260506091103 | 11 | 304 | 1.6 | 1.6 | 0.00 | 0.00 | 0.00 | 92 | 1006.7 |
| 20260506090601 | 11 | 319 | 0.0 | 0.0 | 0.00 | 0.00 | 0.00 | 92 | 1006.9 |
| 20260506090057 | 11 | 322 | 1.6 | 1.6 | 0.00 | 0.00 | 0.00 | 92 | 1006.9 |